Wetbulb
77.34 78.00 77.83 77.93 77.71 77.12 76.54 76.93 77.28 77.76 77.71 77.00 77.68 76.98 76.95 76.08 76.63 77.31 77.43 77.24 76.87 76.81 76.60 76.16 76.35 78.31 74.31 73.32 73.32 73.00 72.61 71.81 70.28 70.61 73.38 77.77 78.27 77.19 76.85 77.49 77.08 76.70 76.35
71.81 72.52 73.02 76.18 77.01 76.52 75.94 76.05 75.99 76.73 78.04 77.39 77.29 77.29 76.47 76.19 76.77 76.14 75.23 75.34 76.00 75.04 75.56 76.57 75.24 74.59 77.19 77.06 73.70 75.38 75.14 74.89 72.34 73.50 73.87 74.34 71.34 77.61 78.25 78.52 77.18 76.61 76.52
70.06 69.84 70.50 70.38 70.51 72.33 73.74 75.10 76.19 76.83 76.97 76.46 77.62 77.15 76.73 76.16 76.29 77.23 77.42 76.50 75.98 76.20 76.60 76.20 76.29 76.59 76.46 74.62 76.59 74.74 73.09 73.46 74.21 71.94 71.66 73.39 74.25 77.06 77.51 78.13 78.35 78.63 77.74
70.59 70.12 70.40 70.02 70.18 70.85 71.80 71.94 71.81 73.88 74.62 75.51 76.42 76.80 76.79 76.75 76.75 76.61 76.33 76.34 76.16 75.89 76.82 76.64 76.74 76.72 76.48 76.82 75.39 75.61 74.47 74.43 75.27 72.92 72.18 72.07 72.61 75.61 75.16 74.67 73.80 75.70 75.49
70.92 70.42 70.67 71.55 71.83 71.93 72.42 72.80 72.62 72.56 72.62 72.97 73.28 74.40 76.21 76.01 76.14 76.35 76.04 76.15 76.05 75.33 76.45 76.47 76.08 76.33 73.17 74.21 75.73 76.86 75.34 73.99 72.80 71.90 71.07 71.09 71.61 71.94 74.15 72.70 73.41 73.40 76.43
70.69 70.14 71.18 71.67 72.23 72.09 72.45 72.57 72.90 72.41 72.72 72.93 72.39 72.62 72.73 71.73 68.20 68.26 71.88 74.95 75.19 75.44 75.21 75.48 77.04 73.62 73.14 69.42 68.71 70.31 74.15 74.01 71.83 72.39 71.46 70.94 74.10 73.93 73.46 72.84 72.91 70.72 69.61
70.14 70.30 70.37 70.83 70.48 70.45 70.32 70.48 70.45 70.94 71.71 72.09 71.81 72.27 72.28 72.82 66.68 66.48 69.24 71.62 70.94 73.57 75.13 74.83 74.65 75.27 73.66 76.29 70.88 68.10 68.64 67.69 69.29 75.36 73.20 72.41 74.85 76.07 75.55 75.96 75.86 74.37 72.91
69.27 68.99 69.40 69.56 69.07 69.49 69.61 69.63 70.27 70.42 70.27 70.17 70.10 71.14 71.76 71.53 65.34 64.62 67.52 71.85 70.73 71.28 72.97 74.05 75.38 75.24 75.15 75.32 75.97 75.66 75.34 75.42 74.26 72.81 73.99 75.09 76.36 77.57 77.87 75.99 76.14 77.06 76.92
67.33 68.03 68.45 68.45 68.10 68.33 68.24 68.76 69.07 69.26 69.46 69.46 70.24 70.71 71.27 71.65 64.77 63.11 66.00 71.05 70.29 71.71 72.57 73.39 74.02 74.72 70.11 66.87 74.60 74.10 75.12 75.18 70.89 67.10 68.30 68.11 68.40 66.84 70.27 76.19 73.12 71.82 70.67
67.18 67.46 68.00 67.21 66.52 66.32 66.80 67.17 68.09 68.45 67.93 67.99 68.48 69.85 67.57 70.18 65.41 62.32 64.43 68.67 68.77 68.34 71.11 72.04 66.52 69.51 65.05 62.43 70.77 72.99 72.85 73.25 75.17 74.90 74.69 70.51 68.16 71.44 65.28 75.25 74.61 72.10 71.08
65.86 65.74 64.41 64.69 64.22 64.76 65.82 66.46 65.02 65.04 65.96 65.98 66.39 67.07 67.43 66.95 68.37 61.91 60.00 68.80 67.94 67.59 67.62 68.26 69.15 61.82 60.25 60.13 61.19 71.94 71.12 72.69 72.29 74.19 74.71 75.39 75.44 75.61 75.10 74.93 75.53 74.40 72.21
64.77 64.05 63.80 63.43 63.69 63.81 63.99 64.02 63.86 63.99 65.15 65.05 64.79 64.46 65.40 69.70 63.66 62.89 59.18 59.45 65.52 67.53 67.03 67.94 69.52 56.49 56.31 56.71 60.03 62.70 60.62 63.64 70.79 70.40 72.08 72.22 73.06 73.84 72.58 74.69 75.88 75.96 75.89
63.03 62.43 62.77 62.60 62.31 63.77 62.96 62.88 62.60 63.76 62.01 61.67 61.75 61.16 62.18 64.31 65.26 60.56 58.14 57.65 59.00 61.35 67.52 64.91 58.76 56.93 56.50 58.17 57.55 59.64 59.90 69.15 69.09 68.94 69.50 70.86 71.46 73.32 74.00 73.25 72.03 77.06 77.00
60.97 60.57 61.40 61.38 60.73 61.88 61.39 62.95 62.92 62.34 62.51 61.96 62.55 61.66 61.16 62.01 63.60 65.44 67.19 66.75 62.00 63.50 63.52 65.14 63.59 61.16 59.51 61.26 62.35 63.91 67.57 67.95 68.06 68.89 69.31 70.00 72.13 72.56 72.83 72.77 72.72 73.95 74.02
60.16 60.20 60.16 60.35 60.27 59.94 60.16 60.50 59.70 61.49 59.42 59.07 60.16 61.52 61.07 60.36 61.79 55.06 54.11 59.58 61.24 60.11 56.25 63.41 64.61 65.51 66.43 67.13 67.99 68.15 67.96 68.17 67.17 67.84 67.98 67.13 68.87 70.52 71.12 72.03 71.59 67.06 65.39
59.03 59.91 59.56 59.28 59.13 58.94 58.96 59.51 55.47 52.24 50.86 48.77 47.01 50.54 59.35 54.15 47.52 46.28 45.01 45.02 45.69 46.92 54.05 60.81 63.27 64.26 64.42 65.85 67.03 67.43 67.10 67.02 69.20 70.05 69.42 69.16 68.16 68.72 68.25 68.63 70.12 70.21 67.10
58.28 58.51 58.71 57.30 57.97 58.08 57.95 57.46 56.25 58.14 53.14 50.38 49.33 49.69 46.16 46.32 45.12 43.89 43.79 43.90 44.73 46.43 52.93 58.91 62.48 63.94 64.40 65.17 65.87 67.97 68.75 69.94 71.15 66.36 67.87 68.07 67.70 67.95 66.95 68.10 68.56 68.65 69.10
60.41 53.82 59.44 60.06 58.43 58.53 57.46 57.13 57.46 56.60 56.61 58.31 52.44 50.06 46.25 45.00 44.70 43.63 43.44 46.78 58.66 54.69 59.00 61.19 62.84 64.55 65.03 65.22 65.15 66.27 67.50 69.10 70.14 70.17 66.67 67.36 68.02 67.88 67.25 68.11 69.15 68.41 68.00
59.25 58.53 57.95 59.41 60.24 57.80 59.02 58.09 57.71 57.33 57.52 56.62 57.01 54.03 52.07 46.66 44.87 45.95 46.60 52.55 53.05 55.19 58.43 60.33 63.08 64.39 65.31 65.35 65.82 67.34 68.68 68.71 69.50 69.24 68.79 68.56 68.59 68.45 67.76 67.86 68.41 59.67 62.32
58.36 56.11 55.24 57.13 57.08 56.97 57.40 57.27 57.15 56.48 55.41 54.32 53.90 53.94 54.25 52.00 52.55 51.26 50.05 50.29 50.96 51.79 53.06 55.04 58.92 62.47 64.43 66.45 65.63 68.54 68.49 68.30 68.94 69.30 69.14 69.56 69.33 69.38 67.44 68.04 67.71 67.82 68.42
56.61 56.68 55.64 56.50 55.70 55.70 55.22 55.57 56.13 55.77 55.53 54.91 53.58 52.31 45.74 51.05 50.62 50.23 49.72 48.98 49.22 50.26 50.61 51.26 51.94 55.57 61.46 63.89 64.57 64.48 65.34 67.50 66.53 66.11 67.87 68.96 69.16 68.55 69.20 68.87 68.48 67.91 67.96
56.12 55.71 55.41 55.03 54.98 54.53 54.26 55.25 55.12 54.49 54.87 54.85 54.87 53.94 46.12 51.79 51.52 50.76 50.61 49.69 49.84 49.94 50.04 50.15 49.88 49.64 49.16 50.52 50.92 52.36 53.43 58.21 61.37 63.46 64.83 65.63 66.31 65.54 67.97 68.29 68.39 68.27 68.30
55.88 55.37 55.19 54.86 54.50 52.86 53.87 54.30 54.33 53.94 54.00 54.68 54.80 54.14 53.14 50.57 50.70 50.72 50.43 50.38 49.90 49.91 49.95 49.44 48.94 48.76 48.81 48.39 48.31 46.99 46.36 45.95 45.25 46.04 49.93 55.13 57.95 65.07 67.64 66.03 66.49 66.90 67.24
55.89 55.36 55.06 55.11 54.77 54.58 54.09 53.24 53.98 49.89 52.94 53.77 54.11 53.66 53.40 53.12 52.47 50.79 50.25 50.95 51.85 50.26 49.92 49.27 48.90 48.34 48.65 47.86 47.25 45.12 44.54 40.56 39.29 41.81 45.27 48.47 52.76 56.07 60.17 62.70 63.68 64.39 66.04
56.00 55.64 55.18 55.18 55.10 54.86 54.77 54.18 54.06 53.82 53.13 52.96 53.02 53.24 53.18 53.27 52.83 52.17 50.75 49.91 51.17 53.94 49.57 50.26 50.16 47.94 47.53 46.85 45.78 41.68 37.96 34.28 35.73 35.99 40.58 45.69 49.07 52.40 55.86 59.59 63.11 63.88 64.91
55.87 56.46 55.80 55.96 55.34 55.22 55.10 54.65 54.15 54.03 53.24 52.99 53.04 53.22 53.57 53.06 52.95 52.93 52.28 52.06 52.25 52.56 53.53 54.07 53.83 53.46 49.92 46.51 42.04 35.97 32.88 32.46 34.82 32.48 35.49 39.02 42.91 49.19 55.26 58.77 61.13 61.85 62.59
MSLP
1010.54 1011.36 1012.00 1012.36 1012.36 1012.90 1012.86 1012.93 1012.83 1012.85 1012.87 1013.00 1013.30 1013.42 1013.52 1013.69 1013.63 1013.78 1013.96 1013.85 1013.88 1014.03 1014.11 1014.00 1014.12 1014.41 1013.97 1013.27 1012.76 1012.43 1012.34 1012.70 1013.17 1012.60 1012.43 1012.33 1013.50 1013.81 1012.31 1012.09 1013.02 1013.36 1013.28
1011.42 1011.51 1011.93 1012.22 1012.67 1012.59 1012.62 1012.68 1012.78 1012.46 1012.83 1012.89 1013.01 1013.20 1013.30 1013.30 1013.21 1013.57 1013.52 1013.34 1013.47 1013.51 1013.51 1013.64 1013.64 1013.51 1013.81 1013.76 1013.50 1013.01 1012.45 1012.47 1012.62 1012.34 1011.78 1013.10 1012.91 1011.39 1013.16 1012.00 1012.30 1012.17 1011.93
1011.19 1011.48 1012.04 1012.00 1011.98 1012.26 1012.49 1012.42 1012.66 1012.64 1012.58 1012.32 1012.56 1012.71 1012.86 1012.84 1012.87 1012.77 1012.91 1013.06 1013.01 1012.89 1012.91 1013.12 1013.06 1013.13 1013.29 1013.25 1013.09 1012.67 1012.17 1012.28 1012.29 1012.23 1011.39 1011.37 1011.74 1011.95 1012.12 1011.60 1012.16 1012.08 1011.55
1011.74 1011.88 1012.19 1012.26 1012.25 1012.44 1012.70 1012.65 1012.54 1012.48 1012.45 1012.30 1012.49 1012.57 1012.60 1012.59 1012.61 1012.54 1012.60 1012.60 1012.53 1012.39 1012.40 1012.36 1012.42 1012.47 1012.87 1013.12 1013.13 1013.14 1012.84 1012.30 1012.17 1012.37 1011.83 1010.87 1010.27 1010.19 1010.23 1011.05 1011.71 1011.55 1010.95
1012.24 1012.32 1012.39 1012.65 1012.69 1012.70 1012.72 1012.78 1012.71 1012.62 1012.41 1012.37 1012.15 1011.91 1012.02 1012.24 1012.23 1012.27 1012.38 1012.35 1012.47 1012.35 1012.19 1012.19 1012.01 1011.81 1011.95 1012.38 1012.65 1012.64 1012.69 1012.58 1011.96 1011.49 1011.39 1011.47 1010.93 1010.48 1010.41 1010.49 1010.69 1010.24 1010.11
1012.70 1012.72 1012.77 1012.90 1013.02 1012.96 1012.92 1012.86 1012.81 1012.67 1012.52 1012.34 1012.14 1011.96 1011.82 1011.57 1011.71 1012.01 1012.11 1012.04 1011.99 1011.93 1011.86 1011.65 1011.50 1011.48 1011.68 1011.53 1011.78 1012.02 1012.12 1012.21 1012.18 1011.51 1010.99 1010.32 1010.61 1010.99 1010.71 1010.25 1010.07 1010.12 1010.48
1012.99 1013.12 1013.12 1013.19 1013.21 1013.28 1013.27 1013.17 1013.04 1012.85 1012.65 1012.43 1012.14 1011.94 1011.77 1011.69 1011.62 1011.78 1011.92 1011.72 1011.38 1011.00 1011.05 1011.07 1010.97 1010.53 1010.52 1010.69 1010.80 1010.94 1011.08 1011.30 1011.30 1011.14 1011.08 1010.60 1010.33 1010.67 1011.16 1010.88 1010.35 1009.99 1009.61
1013.32 1013.33 1013.29 1013.36 1013.37 1013.37 1013.29 1013.16 1012.99 1012.77 1012.57 1012.38 1012.13 1011.93 1011.78 1011.62 1011.58 1011.64 1011.68 1011.53 1011.15 1010.79 1010.48 1010.20 1010.11 1010.20 1010.11 1010.11 1010.30 1010.23 1010.21 1010.09 1010.30 1010.64 1010.49 1010.20 1010.23 1010.27 1010.63 1010.73 1010.62 1010.17 1009.59
1013.32 1013.33 1013.44 1013.49 1013.57 1013.49 1013.28 1013.05 1012.88 1012.70 1012.37 1012.04 1011.79 1011.59 1011.39 1011.22 1011.22 1011.23 1011.37 1011.01 1010.54 1010.19 1009.88 1009.67 1009.48 1009.22 1009.33 1009.71 1009.86 1009.69 1009.48 1009.30 1008.87 1008.96 1009.08 1009.24 1009.50 1009.65 1009.89 1010.29 1010.18 1010.04 1008.84
1013.47 1013.60 1013.76 1014.15 1014.19 1013.86 1013.68 1013.43 1013.22 1012.97 1012.36 1011.92 1011.55 1011.39 1011.16 1010.97 1010.84 1010.82 1010.90 1010.62 1010.02 1009.55 1009.13 1008.80 1008.68 1008.80 1008.92 1009.16 1009.41 1009.16 1009.05 1008.63 1008.83 1008.81 1009.11 1009.18 1009.24 1009.31 1009.45 1009.62 1009.26 1008.88 1008.06
1014.27 1014.41 1014.63 1014.43 1014.40 1014.32 1013.73 1013.54 1013.53 1013.22 1012.86 1012.42 1012.06 1011.90 1011.59 1011.30 1010.87 1010.50 1010.38 1010.27 1009.82 1009.24 1008.58 1008.04 1007.55 1007.45 1007.72 1008.02 1008.31 1008.38 1008.25 1008.25 1008.40 1008.38 1008.27 1008.25 1008.33 1008.28 1008.38 1008.24 1008.28 1008.13 1007.39
1014.40 1014.53 1014.57 1014.64 1014.24 1013.95 1013.91 1013.61 1013.37 1013.03 1012.36 1012.10 1011.78 1011.42 1010.85 1010.25 1009.89 1009.92 1009.96 1009.77 1009.56 1009.23 1008.69 1008.26 1007.85 1007.89 1008.36 1008.36 1008.29 1007.98 1007.97 1008.12 1008.10 1008.04 1007.61 1007.40 1007.33 1007.16 1006.93 1006.09 1005.95 1006.42 1006.32
1014.55 1014.55 1014.45 1014.35 1014.11 1013.72 1013.55 1013.28 1012.78 1012.57 1012.25 1012.00 1011.73 1011.55 1011.09 1010.69 1010.57 1010.23 1010.00 1009.91 1009.86 1009.99 1009.12 1008.43 1008.30 1007.94 1007.62 1007.70 1007.67 1007.34 1007.50 1007.50 1007.31 1007.09 1006.63 1006.10 1006.18 1005.97 1006.00 1005.60 1005.36 1005.72 1005.20
1014.81 1014.64 1014.42 1014.22 1014.07 1013.77 1013.59 1012.82 1012.63 1012.43 1012.17 1012.26 1011.90 1011.70 1011.59 1011.27 1010.73 1010.10 1009.70 1009.35 1009.39 1009.23 1008.98 1008.66 1008.28 1007.84 1007.18 1006.82 1006.63 1006.49 1006.59 1006.48 1006.43 1005.94 1005.52 1005.31 1004.96 1005.09 1005.17 1005.11 1005.47 1005.66 1005.75
1014.85 1014.60 1014.33 1014.09 1013.84 1013.67 1013.54 1013.50 1013.36 1013.05 1012.90 1012.90 1012.54 1012.24 1011.83 1011.33 1010.89 1011.05 1011.21 1010.63 1010.08 1009.55 1009.49 1008.28 1007.15 1006.33 1005.82 1005.42 1005.00 1005.05 1005.38 1005.68 1005.73 1005.71 1005.46 1005.08 1004.84 1004.42 1003.85 1003.98 1004.70 1005.47 1005.72
1014.69 1014.35 1014.18 1014.18 1013.97 1013.76 1013.44 1012.99 1012.93 1012.96 1012.92 1012.72 1012.49 1012.49 1012.02 1011.86 1012.01 1011.67 1011.35 1010.85 1010.28 1009.95 1009.36 1007.96 1006.56 1005.52 1004.76 1004.47 1004.53 1004.49 1004.70 1004.49 1004.43 1004.35 1004.19 1003.91 1003.72 1003.76 1003.59 1003.56 1003.81 1004.09 1004.41
1014.69 1014.62 1014.26 1014.16 1013.92 1013.61 1013.35 1013.15 1012.79 1012.27 1012.03 1011.89 1011.92 1012.08 1012.37 1012.35 1012.11 1011.54 1010.78 1010.06 1009.43 1009.39 1008.82 1007.50 1006.13 1004.93 1004.22 1003.72 1003.41 1003.54 1003.54 1003.53 1003.33 1003.28 1003.21 1002.84 1002.55 1002.38 1002.57 1002.66 1002.76 1003.15 1002.83
1014.00 1014.07 1013.59 1013.22 1013.61 1013.40 1013.40 1013.05 1012.68 1012.33 1011.95 1011.62 1011.67 1012.06 1012.16 1012.10 1011.80 1011.10 1010.60 1009.64 1008.33 1008.00 1007.34 1006.25 1005.08 1004.05 1003.42 1003.10 1002.88 1002.55 1002.43 1002.47 1002.48 1002.38 1002.30 1002.08 1000.92 1001.08 1000.97 1000.94 1000.76 1000.72 1000.85
1013.29 1013.30 1013.40 1012.80 1012.73 1012.80 1012.45 1012.38 1011.95 1012.06 1011.99 1012.04 1011.82 1011.62 1011.83 1011.86 1011.14 1010.99 1010.66 1010.18 1009.40 1008.39 1007.40 1006.09 1004.73 1003.97 1003.56 1002.99 1002.44 1002.26 1002.27 1002.14 1001.96 1001.81 1001.50 1001.25 1000.98 1000.93 1000.49 1000.31 999.81 999.66 999.83
1012.69 1013.51 1013.38 1012.70 1012.26 1012.05 1011.80 1011.59 1011.23 1011.33 1011.82 1012.19 1011.99 1011.83 1011.77 1011.71 1011.20 1011.05 1010.94 1010.48 1009.86 1009.10 1008.16 1007.23 1005.92 1004.90 1003.74 1002.84 1002.41 1002.17 1001.94 1001.68 1001.54 1001.40 1001.25 1001.09 1000.86 1000.60 1000.28 999.95 999.75 999.30 999.18
1012.69 1012.76 1013.11 1012.54 1012.38 1012.18 1011.98 1011.56 1011.36 1011.27 1011.20 1011.52 1011.71 1012.42 1012.98 1012.54 1012.06 1011.77 1011.32 1010.83 1010.35 1009.56 1008.79 1008.00 1007.04 1005.85 1004.21 1003.06 1002.59 1002.38 1001.96 1001.09 1001.18 1001.15 1000.61 1000.41 1000.39 1000.26 1000.01 999.86 999.66 999.42 999.25
1013.01 1012.82 1012.69 1012.59 1012.59 1012.33 1012.11 1011.60 1011.33 1011.35 1011.34 1011.37 1011.42 1011.80 1012.62 1012.32 1012.07 1011.89 1011.54 1011.14 1010.67 1010.17 1009.58 1008.87 1007.90 1007.15 1006.42 1005.56 1004.92 1004.08 1003.58 1002.71 1002.02 1001.42 1001.01 1000.65 1000.18 1000.04 999.80 999.59 999.34 999.12 998.98
1012.82 1012.71 1012.66 1012.62 1012.64 1012.37 1011.78 1011.65 1011.37 1011.52 1011.55 1011.43 1011.51 1011.58 1011.84 1012.11 1011.94 1011.75 1011.51 1011.26 1010.90 1010.34 1009.80 1009.22 1008.44 1007.73 1006.97 1006.50 1006.21 1005.87 1005.32 1004.91 1004.42 1003.79 1002.96 1001.92 1001.13 1000.22 999.70 999.46 999.22 998.94 998.70
1012.43 1012.79 1012.72 1012.60 1012.57 1012.25 1011.96 1011.69 1011.47 1011.51 1011.59 1011.43 1011.56 1011.73 1011.53 1011.32 1011.24 1011.64 1011.55 1011.21 1010.73 1010.47 1010.02 1009.51 1008.99 1008.39 1007.66 1007.23 1006.73 1006.41 1005.71 1005.67 1005.25 1004.17 1003.35 1002.31 1001.55 1000.75 1000.06 999.57 999.15 998.72 998.25
1012.03 1012.36 1012.48 1012.47 1012.36 1012.20 1011.92 1011.72 1011.55 1011.43 1011.54 1011.55 1011.52 1011.38 1011.34 1011.16 1010.97 1011.26 1011.48 1011.28 1010.67 1009.74 1009.83 1009.44 1009.01 1008.77 1008.26 1007.58 1006.93 1006.34 1005.29 1005.13 1005.55 1004.30 1003.22 1002.49 1001.60 1000.62 999.84 999.06 998.30 997.69 997.38
1011.72 1011.81 1012.10 1012.07 1012.10 1012.09 1011.91 1011.75 1011.62 1011.45 1011.52 1011.35 1011.38 1011.29 1011.13 1010.90 1010.91 1010.92 1010.85 1010.42 1009.91 1009.07 1008.79 1008.68 1008.30 1008.04 1008.08 1007.88 1007.60 1007.18 1006.35 1005.42 1004.44 1003.52 1003.08 1002.24 1001.41 1000.29 999.39 998.43 997.72 996.94 996.30
Wind_Speed
7 8 5 2 2 4 5 6 5 7 6 7 7 8 8 9 10 10 10 11 10 10 10 9 8 9 9 10 7 9 6 5 7 9 4 5 4 5 6 6 8 10 11
6 6 5 5 3 2 4 6 7 7 5 6 8 8 7 9 10 10 13 12 12 12 11 11 11 10 11 10 10 10 7 8 9 9 9 3 5 13 8 7 7 10 11
5 7 6 4 4 2 3 3 3 5 7 8 8 9 10 10 9 10 11 12 13 12 12 12 12 12 9 11 9 10 11 10 9 10 11 9 8 7 6 4 7 10 11
7 7 6 6 6 5 4 5 6 5 6 6 7 9 10 10 11 11 10 12 13 13 13 12 12 12 11 12 12 11 11 10 6 7 10 11 9 8 7 6 6 10 10
5 6 6 6 6 7 6 6 6 7 8 8 9 8 7 8 9 11 12 12 12 14 14 13 15 14 14 15 10 11 12 10 11 11 11 10 11 9 7 4 9 9 8
5 6 6 7 7 8 8 8 8 8 9 9 9 10 9 9 6 4 5 9 12 12 13 15 14 16 13 13 13 14 13 12 12 10 10 10 9 9 11 9 11 3 5
6 7 8 8 9 9 9 9 10 10 10 10 11 11 11 11 9 5 4 10 11 10 12 13 14 14 15 16 17 19 18 18 15 11 12 12 9 9 10 9 9 9 9
6 7 7 8 9 9 10 10 9 9 9 9 11 11 11 11 9 8 8 11 12 13 13 13 12 14 16 14 13 14 16 16 17 15 17 15 14 10 10 9 9 9 9
7 6 7 8 9 10 10 11 10 10 10 10 10 11 11 11 10 8 7 12 13 13 13 13 14 13 13 13 14 15 15 15 16 19 20 17 17 14 11 9 10 9 11
7 8 9 10 11 11 11 11 10 11 12 11 12 12 13 13 12 11 9 11 14 13 14 15 17 17 15 6 7 12 14 17 14 16 9 15 15 14 12 12 11 12 12
8 8 7 7 8 10 10 8 9 11 10 11 10 11 13 14 16 12 10 11 12 13 13 12 12 15 20 19 17 14 15 12 12 12 12 9 11 13 13 14 15 14 13
7 7 9 9 8 7 9 9 9 11 11 9 10 11 11 11 8 9 10 15 14 12 13 13 14 8 4 10 10 12 13 12 9 10 10 10 10 11 14 15 18 18 16
8 8 9 9 8 8 9 9 8 7 7 7 6 8 9 9 9 16 7 6 7 7 12 13 19 20 19 10 15 15 12 11 11 12 14 13 12 13 14 14 10 16 19
7 7 7 8 9 9 8 8 8 8 7 7 8 7 7 9 9 9 7 8 6 8 8 6 12 16 18 17 15 10 9 9 12 13 12 11 12 12 12 11 11 6 9
7 7 7 6 7 7 7 7 7 9 7 9 9 7 7 9 10 14 13 12 12 14 15 13 13 12 12 12 11 11 10 8 10 10 10 8 9 11 12 11 8 5 4
6 6 6 7 7 7 8 8 4 4 8 10 10 6 7 10 12 12 13 14 14 12 6 11 13 13 13 11 10 9 12 14 12 12 11 11 11 12 12 9 9 8 10
5 6 5 5 6 6 7 8 9 8 8 11 9 7 1 7 8 13 17 15 15 6 6 11 13 13 13 13 10 10 11 10 12 10 10 13 11 11 12 12 12 13 14
5 9 6 4 5 6 6 7 7 8 9 8 8 9 7 13 18 17 15 14 10 6 9 11 14 13 11 11 13 12 10 9 10 10 11 11 9 10 12 12 13 13 12
4 5 7 4 3 3 4 5 5 7 8 9 9 9 11 17 12 11 14 8 10 10 12 14 13 11 11 10 10 10 10 10 9 9 10 11 11 11 12 13 13 12 11
2 6 6 6 6 6 6 7 6 6 6 8 8 10 14 13 12 12 10 9 9 9 10 12 12 13 12 11 8 9 10 11 10 9 10 10 10 10 12 13 13 14 13
5 4 1 5 6 6 6 7 7 8 7 7 7 7 10 9 10 9 9 8 9 10 10 10 11 13 13 10 12 8 10 10 8 10 11 9 9 10 11 12 12 14 14
5 5 6 6 6 7 7 8 7 8 8 8 8 7 8 8 8 8 9 9 9 9 9 9 9 9 9 10 11 10 12 12 10 9 6 7 10 10 11 10 11 10 11
4 6 6 6 6 8 6 7 7 8 8 7 9 8 7 8 9 9 9 9 8 8 9 9 10 10 9 10 9 9 9 10 10 9 11 9 8 10 9 8 9 10 11
4 5 6 6 6 7 7 8 7 6 8 8 8 8 9 8 8 9 10 9 9 8 8 8 8 13 11 10 8 7 7 9 9 8 11 9 10 10 8 9 10 14 14
4 3 5 5 6 7 8 8 8 7 8 7 7 7 8 8 9 8 9 9 10 8 6 7 6 11 13 16 16 17 18 21 15 12 8 11 14 15 12 10 15 15 18
5 3 5 4 6 6 8 8 8 8 7 6 7 7 8 8 9 8 8 8 9 9 10 6 9 12 12 10 13 17 14 16 16 14 9 7 9 10 10 11 19 15 19
Wind_Direction
44 47 55 349 271 221 236 244 236 251 246 222 219 239 213 229 227 221 238 261 225 223 245 273 226 252 273 285 262 247 241 255 286 279 151 236 180 250 264 198 226 247 234
85 82 77 94 127 314 296 277 273 265 233 235 234 233 244 242 216 218 228 236 227 246 243 239 247 240 223 243 273 283 281 290 297 296 282 274 134 234 225 220 254 257 235
84 75 53 45 25 44 5 340 293 300 290 271 205 241 245 245 241 237 232 236 244 243 238 240 235 242 247 259 269 271 240 224 234 250 272 274 264 186 206 219 253 252 258
39 40 35 14 12 16 359 351 328 327 305 277 278 278 259 254 256 252 250 245 243 244 242 246 241 239 236 241 246 254 279 275 245 258 269 283 271 256 228 205 222 245 257
16 3 8 356 348 338 337 332 322 325 322 313 302 294 259 254 252 254 256 257 255 255 258 260 252 242 228 222 234 242 243 258 251 246 232 245 268 276 259 249 259 247 229
347 341 347 341 340 330 327 323 315 304 301 295 290 288 287 285 96 153 258 265 263 262 259 257 256 269 251 240 219 227 242 237 255 269 277 239 226 274 274 241 231 186 263
336 329 328 327 327 325 324 317 309 305 302 294 289 286 285 284 299 298 248 281 282 272 255 258 260 251 236 237 232 220 226 234 240 244 246 259 270 216 258 291 272 280 277
304 307 321 319 318 317 314 311 308 303 298 293 289 288 286 281 277 260 221 267 275 273 274 272 256 254 262 264 253 253 238 233 232 238 241 241 244 245 238 232 251 267 274
301 326 324 319 313 313 310 313 313 304 299 296 289 283 278 275 270 261 240 274 271 268 265 264 266 265 254 245 256 256 257 247 241 222 223 235 235 252 247 232 237 237 244
353 339 346 342 322 315 315 308 315 309 298 302 309 310 304 293 275 262 253 275 273 271 266 254 233 242 253 219 247 264 257 254 252 267 244 240 237 232 219 231 238 242 241
334 345 305 301 327 298 298 326 319 305 299 295 300 299 292 290 292 280 238 260 270 277 274 272 270 223 226 230 229 245 252 273 272 260 257 247 240 237 237 222 228 237 245
324 321 331 309 302 316 306 300 305 295 288 291 305 303 305 298 286 291 273 246 258 267 277 279 288 34 356 274 251 247 247 257 258 265 255 250 244 237 243 231 210 217 227
330 328 318 319 312 310 318 300 292 297 314 304 300 315 314 321 321 320 1 357 308 284 284 306 317 308 303 262 231 234 228 250 254 256 247 245 248 243 247 274 278 227 220
324 330 329 329 337 321 323 323 334 321 322 339 324 304 304 301 295 286 308 316 279 271 267 282 295 290 275 278 292 233 234 255 251 251 247 253 246 231 241 242 264 315 280
337 330 332 323 327 324 324 318 314 302 334 322 306 301 300 304 311 349 339 321 315 312 325 294 280 269 267 271 271 273 263 244 231 234 241 246 267 268 245 241 217 213 275
338 348 352 336 339 334 328 329 308 327 306 297 295 266 315 311 6 343 325 309 300 302 289 278 274 271 270 262 257 245 247 242 233 234 232 229 229 239 249 245 252 211 216
347 340 340 330 338 337 339 340 337 333 280 256 269 308 98 285 302 311 309 305 282 241 249 267 263 265 265 265 259 236 241 243 244 247 255 231 226 241 242 251 243 235 226
331 196 309 356 351 343 343 341 338 351 343 348 40 14 30 14 331 319 324 308 302 218 253 266 270 273 266 259 264 262 265 249 248 248 242 251 237 242 241 240 241 243 245
316 10 327 309 267 282 304 332 353 347 353 358 346 355 3 354 317 355 336 342 330 314 312 310 298 295 296 296 266 265 268 269 258 259 259 267 265 260 264 270 268 266 278
38 122 285 321 340 348 347 331 352 5 8 2 353 2 357 346 358 355 352 345 337 336 331 329 296 294 295 289 280 277 263 261 262 258 254 251 252 252 256 258 259 266 267
348 5 280 334 349 353 354 338 348 355 359 8 10 33 9 342 350 346 343 347 341 340 341 339 334 347 335 344 342 304 285 256 260 264 265 252 247 254 255 256 259 261 267
358 347 3 357 348 345 349 329 354 1 0 354 359 25 10 353 360 351 349 351 349 347 348 339 344 355 2 353 356 350 345 347 335 324 303 293 283 278 273 267 266 268 269
44 354 10 7 5 319 350 338 360 5 353 352 355 357 359 2 349 352 355 355 347 346 349 346 347 348 357 359 360 356 349 346 335 327 313 318 313 308 277 274 279 282 279
38 4 357 2 15 338 7 335 354 9 355 357 357 352 349 354 353 2 353 347 356 356 347 347 348 349 347 353 345 336 345 344 321 303 302 295 289 288 287 289 283 282 270
312 38 334 358 351 353 354 355 349 354 357 353 351 351 353 355 356 6 1 348 333 345 347 348 355 353 350 344 344 340 341 336 300 310 310 284 268 267 262 259 264 265 266
306 6 317 345 340 358 341 353 351 342 348 346 347 355 341 359 1 359 349 349 347 346 5 357 351 3 355 346 340 323 312 318 327 325 316 295 286 284 283 282 278 277 276